Вернуться в каталог

STARLINK-36358

АктивенСвязьSSO
NORAD 67598·PAYLOAD·🇺🇸 United States

Запущен Jan 29, 2026 с Vandenberg Space Force Base

Loading…

Ближайшие Пролёты (ближайшие 24 часа)

TLE

СвежийSource: CelesTrak SupGP

Эпоха: Sep 15, 2026, 03:13 UTC

1 67598C 26018K   26258.13451389 -.00020088  00000+0 -62351-3 0  2586
2 67598  97.2846 321.6356 0001006  92.4862 350.7948 15.33453669    19

Отслеживайте STARLINK-36358 в реальном времени с AllMySat

Download on the App Store